Time,TemperatureF,DewpointF,PressureIn,WindDirection,WindDirectionDegrees,WindSpeedMPH,WindSpeedGustMPH,Humidity,HourlyPrecipIn,Conditions,Clouds,dailyrainin,SoftwareType,DateUTC
2013-03-05 00:12:00,17.3,16.0,29.88,NNE,17,0.0,0.0,93,0.00,,,0.00,weatherlink.com 1.10,2013-03-05 05:12:00,
2013-03-05 00:27:00,17.4,16.0,29.89,NNE,29,0.0,0.0,93,0.00,,,0.00,weatherlink.com 1.10,2013-03-05 05:27:00,
2013-03-05 00:42:00,17.6,16.0,29.89,NNE,28,0.0,0.0,93,0.00,,,0.00,weatherlink.com 1.10,2013-03-05 05:42:00,
2013-03-05 00:57:00,17.7,16.0,29.89,NNE,26,0.0,0.0,93,0.00,,,0.00,weatherlink.com 1.10,2013-03-05 05:57:00,
2013-03-05 01:12:00,17.8,16.0,29.90,NE,40,0.0,0.0,93,0.00,,,0.00,weatherlink.com 1.10,2013-03-05 06:12:00,
2013-03-05 01:27:00,17.8,16.0,29.91,ENE,67,0.0,0.0,93,0.00,,,0.00,weatherlink.com 1.10,2013-03-05 06:27:00,
2013-03-05 01:42:00,17.9,16.0,29.91,NE,42,0.0,0.0,93,0.00,,,0.00,weatherlink.com 1.10,2013-03-05 06:42:00,
2013-03-05 01:57:00,17.8,16.0,29.91,NE,40,0.0,0.0,93,0.00,,,0.00,weatherlink.com 1.10,2013-03-05 06:57:00,
2013-03-05 02:12:00,17.8,16.0,29.91,NNE,18,0.0,0.0,93,0.00,,,0.00,weatherlink.com 1.10,2013-03-05 07:12:00,
2013-03-05 02:27:00,17.8,16.0,29.92,NNE,30,0.0,0.0,93,0.00,,,0.00,weatherlink.com 1.10,2013-03-05 07:27:00,
2013-03-05 02:42:00,17.7,16.0,29.92,NNE,30,0.0,0.0,93,0.00,,,0.00,weatherlink.com 1.10,2013-03-05 07:42:00,
2013-03-05 02:57:00,17.7,16.0,29.92,NNE,24,0.0,0.0,93,0.00,,,0.00,weatherlink.com 1.10,2013-03-05 07:57:00,
2013-03-05 03:12:00,17.7,16.0,29.93,NNE,27,0.0,0.0,93,0.00,,,0.00,weatherlink.com 1.10,2013-03-05 08:12:00,
2013-03-05 03:27:00,17.8,16.0,29.94,NNE,27,0.0,0.0,93,0.00,,,0.00,weatherlink.com 1.10,2013-03-05 08:27:00,
2013-03-05 03:42:00,17.8,16.0,29.94,NE,34,0.0,0.0,93,0.00,,,0.00,weatherlink.com 1.10,2013-03-05 08:42:00,
2013-03-05 03:57:00,17.9,16.0,29.95,NE,37,0.0,0.0,93,0.00,,,0.00,weatherlink.com 1.10,2013-03-05 08:57:00,
2013-03-05 04:12:00,18.0,16.0,29.95,NE,42,0.0,0.0,93,0.00,,,0.00,weatherlink.com 1.10,2013-03-05 09:12:00,
2013-03-05 04:28:00,18.1,16.0,29.96,NE,42,0.0,0.0,93,0.00,,,0.00,weatherlink.com 1.10,2013-03-05 09:28:00,
2013-03-05 04:43:00,18.2,17.0,29.97,NE,45,0.0,0.0,93,0.00,,,0.00,weatherlink.com 1.10,2013-03-05 09:43:00,
2013-03-05 04:58:00,18.3,17.0,29.97,NNE,18,0.0,0.0,93,0.00,,,0.00,weatherlink.com 1.10,2013-03-05 09:58:00,
2013-03-05 05:13:00,18.4,17.0,29.98,NE,43,0.0,0.0,93,0.00,,,0.00,weatherlink.com 1.10,2013-03-05 10:13:00,
2013-03-05 05:28:00,18.5,17.0,29.99,NNE,25,0.0,0.0,93,0.00,,,0.00,weatherlink.com 1.10,2013-03-05 10:28:00,
2013-03-05 05:43:00,18.5,17.0,30.00,NE,34,0.0,0.0,93,0.00,,,0.00,weatherlink.com 1.10,2013-03-05 10:43:00,
2013-03-05 05:58:00,18.6,17.0,30.00,NNE,15,0.0,0.0,93,0.00,,,0.00,weatherlink.com 1.10,2013-03-05 10:58:00,
2013-03-05 06:13:00,18.6,17.0,30.00,NE,36,0.0,0.0,93,0.00,,,0.00,weatherlink.com 1.10,2013-03-05 11:13:00,
2013-03-05 06:28:00,18.7,17.0,30.01,NNE,23,0.0,0.0,93,0.00,,,0.00,weatherlink.com 1.10,2013-03-05 11:28:00,
2013-03-05 06:43:00,18.8,17.0,30.02,NNE,16,0.0,0.0,93,0.00,,,0.00,weatherlink.com 1.10,2013-03-05 11:43:00,
2013-03-05 06:58:00,19.0,17.0,30.02,NE,47,0.0,0.0,93,0.00,,,0.00,weatherlink.com 1.10,2013-03-05 11:58:00,
2013-03-05 07:13:00,19.1,17.0,30.03,NE,34,0.0,0.0,93,0.00,,,0.00,weatherlink.com 1.10,2013-03-05 12:13:00,
2013-03-05 07:28:00,19.4,18.0,30.03,NE,43,0.0,0.0,93,0.00,,,0.00,weatherlink.com 1.10,2013-03-05 12:28:00,
2013-03-05 07:43:00,19.7,18.0,30.04,NNE,16,0.0,0.0,93,0.00,,,0.00,weatherlink.com 1.10,2013-03-05 12:43:00,
2013-03-05 07:58:00,19.9,18.0,30.05,NNE,29,0.0,0.0,93,0.00,,,0.00,weatherlink.com 1.10,2013-03-05 12:58:00,
2013-03-05 08:13:00,20.4,19.0,30.05,NNE,32,0.0,0.0,93,0.00,,,0.00,weatherlink.com 1.10,2013-03-05 13:13:00,
2013-03-05 08:28:00,20.9,19.0,30.05,North,355,0.0,0.0,93,0.00,,,0.00,weatherlink.com 1.10,2013-03-05 13:28:00,
2013-03-05 08:44:00,21.7,20.0,30.06,NNE,30,0.0,0.0,93,0.00,,,0.00,weatherlink.com 1.10,2013-03-05 13:44:00,
2013-03-05 08:59:00,21.9,20.0,30.06,NE,40,0.0,0.0,92,0.00,,,0.00,weatherlink.com 1.10,2013-03-05 13:59:00,
2013-03-05 09:14:00,22.4,21.0,30.06,NNE,14,0.0,0.0,93,0.00,,,0.00,weatherlink.com 1.10,2013-03-05 14:14:00,
2013-03-05 09:29:00,23.0,21.0,30.06,North,360,0.0,0.0,92,0.00,,,0.00,weatherlink.com 1.10,2013-03-05 14:29:00,
2013-03-05 09:44:00,23.5,22.0,30.07,NE,47,0.0,0.0,92,0.00,,,0.00,weatherlink.com 1.10,2013-03-05 14:44:00,
2013-03-05 09:59:00,24.0,22.0,30.07,NE,36,0.0,0.0,91,0.00,,,0.00,weatherlink.com 1.10,2013-03-05 14:59:00,
2013-03-05 10:14:00,23.7,22.0,30.07,NNE,23,0.0,0.0,91,0.00,,,0.00,weatherlink.com 1.10,2013-03-05 15:14:00,
2013-03-05 10:29:00,23.7,22.0,30.06,NE,41,0.0,0.0,92,0.00,,,0.00,weatherlink.com 1.10,2013-03-05 15:29:00,
2013-03-05 10:44:00,24.4,22.0,30.07,NE,35,0.0,0.0,92,0.00,,,0.00,weatherlink.com 1.10,2013-03-05 15:44:00,
2013-03-05 10:59:00,24.8,23.0,30.07,NE,38,0.0,0.0,91,0.00,,,0.00,weatherlink.com 1.10,2013-03-05 15:59:00,
2013-03-05 11:14:00,25.4,23.0,30.07,NNE,19,0.0,0.0,92,0.00,,,0.00,weatherlink.com 1.10,2013-03-05 16:14:00,
2013-03-05 11:29:00,25.6,23.0,30.08,NE,50,0.0,0.0,91,0.00,,,0.00,weatherlink.com 1.10,2013-03-05 16:29:00,
2013-03-05 11:44:00,26.0,24.0,30.08,NNE,17,0.0,0.0,92,0.00,,,0.00,weatherlink.com 1.10,2013-03-05 16:44:00,
2013-03-05 11:59:00,26.6,24.0,30.08,NNE,25,0.0,0.0,91,0.00,,,0.00,weatherlink.com 1.10,2013-03-05 16:59:00,
2013-03-05 12:14:00,26.8,25.0,30.08,NE,37,0.0,0.0,91,0.00,,,0.00,weatherlink.com 1.10,2013-03-05 17:14:00,
2013-03-05 12:29:00,27.3,25.0,30.09,NE,43,0.0,0.0,92,0.00,,,0.00,weatherlink.com 1.10,2013-03-05 17:29:00,
2013-03-05 12:44:00,27.7,26.0,30.09,NE,39,0.0,0.0,92,0.00,,,0.00,weatherlink.com 1.10,2013-03-05 17:44:00,
2013-03-05 12:59:00,27.9,26.0,30.09,NNE,18,0.0,0.0,92,0.00,,,0.00,weatherlink.com 1.10,2013-03-05 17:59:00,
2013-03-05 13:14:00,28.7,27.0,30.09,NNW,348,0.0,0.0,92,0.00,,,0.00,weatherlink.com 1.10,2013-03-05 18:14:00,
2013-03-05 13:30:00,29.1,27.0,30.09,North,9,0.0,0.0,91,0.00,,,0.00,weatherlink.com 1.10,2013-03-05 18:30:00,
2013-03-05 13:45:00,29.2,27.0,30.10,NNE,28,0.0,0.0,91,0.00,,,0.00,weatherlink.com 1.10,2013-03-05 18:45:00,
2013-03-05 14:00:00,29.8,28.0,30.10,NNE,31,3.0,6.0,91,0.00,,,0.00,weatherlink.com 1.10,2013-03-05 19:00:00,
2013-03-05 14:15:00,30.1,28.0,30.10,NE,44,6.0,7.0,92,0.00,,,0.00,weatherlink.com 1.10,2013-03-05 19:15:00,
2013-03-05 14:30:00,30.1,28.0,30.10,NE,50,2.0,9.0,92,0.00,,,0.00,weatherlink.com 1.10,2013-03-05 19:30:00,
2013-03-05 14:45:00,30.5,29.0,30.10,NNE,19,2.0,5.0,92,0.00,,,0.00,weatherlink.com 1.10,2013-03-05 19:45:00,
2013-03-05 15:00:00,30.8,29.0,30.10,ENE,65,3.0,7.0,92,0.00,,,0.00,weatherlink.com 1.10,2013-03-05 20:00:00,
2013-03-05 15:15:00,31.0,29.0,30.10,NE,38,4.0,9.0,92,0.00,,,0.00,weatherlink.com 1.10,2013-03-05 20:15:00,
2013-03-05 15:30:00,31.5,30.0,30.10,NE,46,1.0,7.0,92,0.00,,,0.00,weatherlink.com 1.10,2013-03-05 20:30:00,
2013-03-05 15:45:00,32.1,30.0,30.11,NE,52,2.0,8.0,92,0.00,,,0.00,weatherlink.com 1.10,2013-03-05 20:45:00,
2013-03-05 16:00:00,32.3,30.0,30.11,NE,38,3.0,6.0,92,0.00,,,0.00,weatherlink.com 1.10,2013-03-05 21:00:00,
2013-03-05 16:15:00,32.1,30.0,30.11,NNE,30,4.0,8.0,93,0.00,,,0.00,weatherlink.com 1.10,2013-03-05 21:15:00,
2013-03-05 16:30:00,31.9,30.0,30.11,NE,44,3.0,7.0,93,0.00,,,0.00,weatherlink.com 1.10,2013-03-05 21:30:00,
2013-03-05 16:45:00,31.7,30.0,30.12,NE,46,2.0,9.0,93,0.00,,,0.00,weatherlink.com 1.10,2013-03-05 21:45:00,
2013-03-05 17:01:00,31.4,30.0,30.12,NE,34,4.0,8.0,94,0.00,,,0.00,weatherlink.com 1.10,2013-03-05 22:01:00,
2013-03-05 17:15:00,31.2,30.0,30.12,NNE,27,3.0,8.0,94,0.00,,,0.00,weatherlink.com 1.10,2013-03-05 22:15:00,
2013-03-05 17:30:00,30.9,30.0,30.13,NNE,29,4.0,8.0,95,0.00,,,0.00,weatherlink.com 1.10,2013-03-05 22:30:00,
2013-03-05 17:45:00,30.7,30.0,30.13,NE,44,6.0,9.0,95,0.00,,,0.00,weatherlink.com 1.10,2013-03-05 22:45:00,
2013-03-05 18:00:00,30.6,29.0,30.14,NE,48,5.0,9.0,95,0.00,,,0.00,weatherlink.com 1.10,2013-03-05 23:00:00,
2013-03-05 18:15:00,30.5,29.0,30.14,NNE,23,3.0,8.0,95,0.00,,,0.00,weatherlink.com 1.10,2013-03-05 23:15:00,
2013-03-05 18:30:00,30.5,29.0,30.14,NNE,26,4.0,7.0,95,0.00,,,0.00,weatherlink.com 1.10,2013-03-05 23:30:00,
2013-03-05 18:45:00,30.4,29.0,30.14,ENE,58,3.0,5.0,96,0.00,,,0.00,weatherlink.com 1.10,2013-03-05 23:45:00,
2013-03-05 19:00:00,30.3,29.0,30.14,ENE,63,4.0,9.0,96,0.00,,,0.00,weatherlink.com 1.10,2013-03-06 00:00:00,
2013-03-05 19:15:00,30.4,29.0,30.14,NNE,31,3.0,6.0,96,0.00,,,0.00,weatherlink.com 1.10,2013-03-06 00:15:00,
2013-03-05 19:30:00,30.4,29.0,30.14,NE,40,1.0,5.0,96,0.00,,,0.00,weatherlink.com 1.10,2013-03-06 00:30:00,
2013-03-05 19:45:00,30.4,29.0,30.14,NE,42,3.0,3.0,96,0.00,,,0.00,weatherlink.com 1.10,2013-03-06 00:45:00,
2013-03-05 20:00:00,30.4,29.0,30.14,NE,49,3.0,4.0,96,0.00,,,0.00,weatherlink.com 1.10,2013-03-06 01:00:00,
2013-03-05 20:15:00,30.3,29.0,30.14,East,80,1.0,4.0,96,0.00,,,0.00,weatherlink.com 1.10,2013-03-06 01:15:00,
2013-03-05 20:30:00,30.3,29.0,30.14,NE,49,1.0,4.0,96,0.00,,,0.00,weatherlink.com 1.10,2013-03-06 01:30:00,
2013-03-05 20:45:00,30.3,29.0,30.13,NE,49,1.0,3.0,96,0.00,,,0.00,weatherlink.com 1.10,2013-03-06 01:45:00,
2013-03-05 21:00:00,30.2,29.0,30.13,NE,49,3.0,4.0,96,0.00,,,0.00,weatherlink.com 1.10,2013-03-06 02:00:00,
2013-03-05 21:15:00,30.1,29.0,30.13,ENE,70,3.0,5.0,96,0.00,,,0.00,weatherlink.com 1.10,2013-03-06 02:15:00,
2013-03-05 21:30:00,29.9,29.0,30.12,East,80,3.0,5.0,96,0.00,,,0.00,weatherlink.com 1.10,2013-03-06 02:30:00,
2013-03-05 21:45:00,30.0,29.0,30.12,ESE,123,5.0,8.0,96,0.00,,,0.00,weatherlink.com 1.10,2013-03-06 02:45:00,
2013-03-05 22:00:00,30.5,30.0,30.12,East,96,1.0,8.0,96,0.00,,,0.00,weatherlink.com 1.10,2013-03-06 03:00:00,
2013-03-05 22:15:00,30.8,29.0,30.13,SE,142,8.0,13.0,93,0.00,,,0.00,weatherlink.com 1.10,2013-03-06 03:15:00,
2013-03-05 22:30:00,30.7,29.0,30.13,SSE,148,5.0,9.0,92,0.00,,,0.00,weatherlink.com 1.10,2013-03-06 03:30:00,
2013-03-05 22:46:00,30.4,28.0,30.13,SE,145,10.0,16.0,91,0.00,,,0.00,weatherlink.com 1.10,2013-03-06 03:46:00,
2013-03-05 23:01:00,30.2,28.0,30.13,SE,146,5.0,18.0,92,0.00,,,0.00,weatherlink.com 1.10,2013-03-06 04:01:00,
2013-03-05 23:16:00,30.1,28.0,30.14,South,170,7.0,10.0,92,0.00,,,0.00,weatherlink.com 1.10,2013-03-06 04:16:00,
2013-03-05 23:31:00,29.8,28.0,30.14,South,178,7.0,10.0,93,0.00,,,0.00,weatherlink.com 1.10,2013-03-06 04:31:00,
2013-03-05 23:46:00,29.7,28.0,30.14,SSW,202,7.0,17.0,93,0.00,,,0.00,weatherlink.com 1.10,2013-03-06 04:46:00,